STARLINK-36375, 67920

Orbit data source: Space-Track

STARLINK-36375, 67920 is a payload satellite owned by SpaceX/Seattle (US) in LEO that was launched on Sun, 22 Feb 2026 UTC via an FALCON 9 launch vehicle from the Air Force Eastern Test Range (AFETR). Payload-class satellites include a variety of spacecraft equipped with specific instruments for various scientific and technological missions. These include communications satellites like Starlink; space stations such as the ISS; scientific satellites like the Hubble; Earth observation satellites from companies like Planet Labs, Umbra, and HawkEye 360; GPS; miniature CubeSats for education and research; and military/defense satellites.

Loading next visibility...
Identifier
67920, 2026-036S
Orbit
LEO
Country
Flag of USUS
Related business
Manufacturer
SpaceX/Seattle
Mission
Operational spacecraft
Bus & Motor
STARLINK V2MO, Unknown motor
Mass
575 kg wet, ~530 kg dry
Launch date (UTC)
2026-02-22 (3 weeks ago)
Launch vehicle
FALCON 9
Launch site
Air Force Eastern Test Range (AFETR)
Object type
Payload
Rocket body
Debris
Shape & HBR
Unknown
Radar Cross Section
RCS unknown

Expand to show TLE details & history
Last TLE update: 9 hours ago

TLE from 9 hours ago
0 STARLINK-36375
1 67920U 26036S   26071.91668981 -.01855947  00000-0 -14650-1 0  9993
2 67920  42.9991 229.9362 0001644 276.7093  37.1563 15.73748123  4169
Epoch: 2026-03-12T22:00Z
TLE epoch observation values (Epoch: 2026-03-12T22:00:01.999Z)
Latitude
-29.62371°
Longitude
52.04054°
Altitude
355.167 km
Speed
7.697 km/s
True Right ascension
12h 50m 26s
True Declination
-29° 28' 02"
Sunlit
Object was in full shadow at epoch
Visualization orbit readout
Latitude
Unknown
Longitude
Unknown
Altitude
Unknown
Speed
Unknown
Apparent Right ascension
Unknown
Apparent Declination
Unknown
Sunlit
N/A
Visualization observer readout
Local Sidereal Time
11:34:55
Azimuth
Unknown
Elevation
Unknown
Doppler factor
Unknown
Orbital elements
Apogee altitude
351.286 km
Perigee altitude
349.074 km
Semi-major axis
6,728.317 km
Eccentricity
0.00016
Inclination
42.9991°
RAAN
229.9362°
Arg. of periapsis
276.7093°
True anomaly
37.16768°
Mean anomaly
37.1563°
Eccentric anomaly
37.16199°
Mean motion
3.93263 °/min
Orbital period
91.54 mins
BSTAR
-0.01465
Loading maneuver chart data...
Computing Atmospheric mass density...
Loading historical data...
Loading historical data...
Loading historical data...
Loading historical data...
Loading historical data...
Loading historical data...
Loading historical data...

Documentation

Showing up to 5 results
|